Current weather by "City, St" or "zip code"  
 
Advertise Here

Current Conditions: Orange, Orange County Airport, TX

Thunderstorm in Vicinity


77.0 F

Last Updated on Aug 4 2020, 5:55 pm CDT
Humidity: 90%
Wind Speed: SW 4.6 mph
Barometer 29.98 in
Dewpoint: 73.6 F
Visibility: 10.00 mi
Precip: 00.02 in
Heat Index: NA
Wind Chill: NA
Current conditions at:

Orange, Orange County Airport, TX (KORG)

Lat: 30.06917 Lon: 93.80361

Local Radar Image active severe weather and emergency alerts image image weather storm and storm spotter reports image weather observation monitoring service image
Local
Radar
Active
Alerts
Storm Reports Obs
Monitoring

Sign-up For Email & Text Message Weather Alert Notification Services


Advertise Here

Observation History for Orange, Orange County Airport, TX


Time Wind
(mph)
Vis
(mi)
Weather Precip (in) Temperature (F) Relative
Humidity
Wind
Chill
(F)
Heat
Index
(F)
Pressure
Air Dwpt altimeter
(in)
sea level
(mb)
Rmks
5:55 pm CDT SW 4.6 10.00 Thunderstorm in Vicinity 00.02 77.0 73.6 90% NA NA 29.98 M
4:55 pm CDT N 18.4 G 36.8 2.50 Thunderstorm Heavy Rain -- 77.0 71.6 84% NA NA 29.99 M
3:55 pm CDT W 8.1 10.00 Thunderstorm in Vicinity -- 96.0 69.4 42% NA 102 29.95 M
3:35 pm CDT W 8.1 10.00 Thunderstorm in Vicinity -- 96.0 70.2 43% NA 103 29.96 M
2:55 pm CDT SW 6.9 10.00 Partly Cloudy -- 95.0 70.5 46% NA 102 29.98 M
1:55 pm CDT W 4.6 10.00 Mostly Cloudy -- 93.0 71.8 50% NA 101 30.00 M
1:35 pm CDT W 5.8 10.00 Partly Cloudy -- 94.0 73.0 51% NA 103 30.01 M
12:55 pm CDT W 6.9 10.00 Fair -- 93.0 72.3 51% NA 101 30.02 M
11:55 am CDT W 6.9 10.00 Fair -- 91.0 74.3 58% NA 101 30.03 M
10:55 am CDT SW 4.6 10.00 Fair -- 89.0 73.6 61% NA 98 30.04 M
9:55 am CDT NW 3.5 10.00 Fair -- 87.0 74.7 67% NA 96 30.04 M
8:55 am CDT N 0.0 10.00 Partly Cloudy -- 82.0 76.1 81% NA 89 30.03 M
8:35 am CDT N 0.0 10.00 Fair -- 82.0 75.7 80% NA 89 30.03 M
7:55 am CDT N 0.0 10.00 Fair -- 81.0 76.5 87% NA 88 30.03 M
7:35 am CDT N 0.0 10.00 Fair -- 79.0 76.1 91% NA NA 30.02 M
6:55 am CDT N 0.0 10.00 Fair -- 77.0 74.3 91% NA NA 30.02 M
5:55 am CDT N 0.0 10.00 Fair -- 77.0 74.5 92% NA NA 30.01 M
4:55 am CDT N 0.0 10.00 Mostly Cloudy -- 78.0 74.8 89% NA NA 30.00 M
3:55 am CDT N 0.0 10.00 Fair -- 80.0 75.2 85% NA 85 29.98 M
3:35 am CDT N 0.0 10.00 Fair -- 80.0 74.8 84% NA 85 29.98 M
2:55 am CDT W 3.5 10.00 Fair -- 81.0 74.7 82% NA 87 29.98 M
2:35 am CDT N 0.0 10.00 Fair -- 81.0 74.5 82% NA 87 29.98 M
1:55 am CDT N 0.0 10.00 Mostly Cloudy -- 81.0 74.3 80% NA 86 29.98 M
12:55 am CDT SW 3.5 10.00 Partly Cloudy -- 82.0 74.1 78% NA 88 29.98 M

Regional Weather Observation


Beaumont Municipal Airport, TX (KBMT)

Thunderstorm Light Rain in Vicinity
79.0 F

Southland Field, LA (KUXL)

Partly Cloudy
78.0 F

Jasper, Jasper County-Bell Field Airport, TX (KJAS)

Fair
94.0 F

Beaumont/Port Arthur Southeast Texas Regional Airport, TX (KBPT)

Thunderstorm
75.0 F

Lake Charles Regional Airport, LA (KLCH)

Partly Cloudy
76.0 F

Chenault Airpark, LA (KCWF)

Partly Cloudy
79.0 F